Location: Mahannah Oil Field
(37.4664°N, 96.6003°W)
Time: 19:42:04
(UTC+00:00)

Transit 2A Rocket - Pass Details

Date: 28 January 2021
Orbit: 594 x 908 km, 66.7° (Epoch: 05 March)

Event Time Altitude Azimuth Distance (km) Brightness Sun altitude
Rises 03:35:22 0° 320° (NW) 2,860 - -45.5°
Reaches altitude 10° 03:37:51 10° 309° (NW) 1,937 - -46.0°
Maximum altitude 03:41:32 28° 250° (WSW) 1,125 - -46.7°
Drops below altitude 10° 03:45:13 10° 191° (S) 1,932 - -47.4°
Sets 03:47:42 0° 179° (S) 2,851 - -47.9°
